Regional Weather Roundup
Issued by NWS Huntsville, AL

Home | Current Version | Previous Version | Text Only | Print | Product List | Glossary On
Versions: 1 2 3 4 5 6 7 8 9 10 11 12 13 14 15 16 17 18 19 20 21 22 23 24 25 26 27 28 29 30 31 32 33 34 35 36 37 38 39 40 41 42 43 44 45 46 47 48 49 50
278
ASUS44 KHUN 272110
RWRHUN

WEATHER ROUNDUP FOR THE TENNESSEE VALLEY
NATIONAL WEATHER SERVICE HUNTSVILLE AL
400 PM CDT MON JUN 27 2016

ALZ001>004-272200-
NORTHWEST ALABAMA

CITY           SKY/WX    TMP DP  RH WIND       PRES   REMARKS
RUSSELLVILLE     N/A     73 N/A N/A MISG        N/A
SHOALS AIRPORT LGT RAIN  74  71  91 VRB6G17   30.10S FOG
SHOALS TVA RES   N/A     75 N/A N/A MISG        N/A
$$

ALZ005>007-016-272200-
NORTH CENTRAL ALABAMA

CITY           SKY/WX    TMP DP  RH WIND       PRES   REMARKS
CULLMAN AG STN   N/A     91 N/A N/A W6          N/A
DECATUR AP     LGT RAIN  76  70  82 NW14      30.07R
HUNTSVILLE AP  CLOUDY    77  68  73 NW14      30.06R THUNDER
HUN NWS/UAH      N/A     76  68  76 VRB8        N/A
MERIDIANVILLE  TSTM      72  68  88 N16       30.08R
REDSTONE ARSN  CLOUDY    77  70  78 NE15G28   30.04R
VINEMONT AP    MOCLDY    77  71  81 NW18G28   30.09R THUNDER
$$

ALZ008>010-272200-
NORTHEAST ALABAMA

CITY           SKY/WX    TMP DP  RH WIND       PRES   REMARKS
ALBERTVILLE    TSTM      73  73 100 W9        30.02R
FORT PAYNE     CLOUDY    88  63  42 W12G18    29.99R THUNDER
SCOTTSBORO AP  CLOUDY    86  68  54 NW6       29.98F
SCOTTSBORO HCN   N/A     84 N/A N/A MISG        N/A
VALLEY HEAD      N/A     90 N/A N/A MISG        N/A
$$

TNZ076-096-097-272200-
SOUTHEASTERN MIDDLE TENNESSEE

CITY           SKY/WX    TMP DP  RH WIND       PRES   REMARKS
TULLAHOMA      CLOUDY    70  70 100 CALM      30.08R
WINCHESTER     CLOUDY    73  70  88 N13       30.08R
$$

...SURROUNDING SITES...

CITY           SKY/WX    TMP DP  RH WIND       PRES   REMARKS
ATLANTA        MOSUNNY   91  66  43 W7        30.00F HX  93
ANNISTON       MOSUNNY   90  68  48 SE12      29.98F THUNDER HX  94
BIRMINGHAM     TSTM      80  71  74 E9G25     30.03R
CHATTANOOGA    PTSUNNY   88  66  48 NW10      29.99S HX  90
DALTON         MOSUNNY   90  68  48 W3        29.96F HX  93
GADSDEN        MOSUNNY   93  71  48 W8        29.98F HX 100
GOLDEN TRNGL   NOT AVBL
HALEYVILLE     LGT RAIN  72  71  97 CALM      30.10F
JACKSON TN     LGT RAIN  77  74  90 N9        30.05F
MEMPHIS        CLOUDY    93  73  52 NW8       30.00S HX 102
NASHVILLE      LGT RAIN  76  72  87 CALM      30.05R
OXFORD MS      LGT RAIN  73  70  88 N10G21    30.05R
ROME           SUNNY     95  66  38 MISG      29.95F HX  98
TUPELO         CLOUDY    80  73  79 E5        30.01R
TUSCALOOSA     SUNNY     94  74  52 VRB5      29.98F HX 104
$$

...GULF COAST WEATHER...

CITY           SKY/WX    TMP DP  RH WIND       PRES   REMARKS
GULFPORT       MOSUNNY   88  70  55 S7        29.99F HX  93
PASCAGOULA     MOSUNNY   88  69  53 S8        29.99F HX  92
MOBILE         CLOUDY    87  68  52 S9        30.00F HX  90
GULF SHORES    MOCLDY    82  79  90 SW3       30.01F HX  93
PENSACOLA      PTSUNNY   88  73  61 S12       30.00F HX  95
DESTIN         SUNNY     91  77  63 VRB7      30.00F HX 104
PANAMA CITY    SUNNY     88  74  62 SW13      30.00F HX  97
APPALACHICOLA  SUNNY     89  75  63 SW13      30.00F HX  99
$$





USA.gov is the U.S. government's official web portal to all federal, state and local government web resources and services.